(241969) = 2002 GT63 = 2007 EX219

Discovered at Palomar on 2002-04-08 by NEAT.

Orbit

Orbit type: Main Belt

Note: WebGL enabled browser required.

epoch2023-09-13.0
epoch JD2460200.5
perihelion date2020-07-03.07099
perihelion JD2459033.57099
argument of perihelion (°)240.04049
ascending node (°)196.93133
inclination (°)11.69822
eccentricity0.0113420
perihelion distance (AU)2.8948248
Tisserand w.r.t. Jupiter3.2
ΔV w.r.t. Earth (km/sec)11.2
semimajor axis (AU)2.9280346
mean anomaly (°)229.55353
mean daily motion (°/day)0.19671590
aphelion distance (AU)2.961
period (years)5.01
P-vector [x]0.23067093
P-vector [y]0.94794580
P-vector [z]0.21952147
Q-vector [x]-0.97123852
Q-vector [y]0.23800053
Q-vector [z]-0.00717522
absolute magnitude15.61
phase slope0.15
uncertainty0
referenceMPO 778716
observations used478
oppositions16
arc length (days)8662
first opposition used1999
last opposition used2023
residual rms (arc-secs)0.74
perturbers coarse indicatorM-v
perturbers precise indicator003Ek
first observation date used1999-10-10.0
last observation date used2023-06-27.0
computer nameMPCLINUX
JD of orbit computation2456966.879672
perihelion JD uncertainty (days)2.5468E-03
argument of perihelion uncertainty (°)4.9946E-04
ascending node uncertainty (°)1.7806E-05
inclination uncertainty (°)9.3525E-06
eccentricity uncertainty 7.0317E-08
perihelion distance uncertainty (AU)2.1540E-07
Minimum Orbit Intersection Distances (in AU)
for orbit epoch: 2460200.5, reference: E2023-VB5
Mercury2.50556
Venus2.17862
Earth1.91128
Mars1.2952
Jupiter2.0419
Saturn6.21585
Uranus15.5375
Neptune26.9316

Observations

494 total observations over interval: 1999 10 10.28018 – 2023 06 27.818714
These data are available for download (format description).

Date (UT) J2000 RA J2000 Dec Magn Location Ref
1999 10 10.28018 02 13 02.84 +09 46 28.5 19.4   704 – Lincoln Laboratory ETS, New Mexico MPS 329077
1999 10 10.29593 02 13 02.30 +09 46 20.9 18.8   704 – Lincoln Laboratory ETS, New Mexico MPS 329077
1999 10 10.31167 02 13 01.69 +09 46 14.3 19.4   704 – Lincoln Laboratory ETS, New Mexico MPS 329077
1999 10 10.32743 02 13 00.99 +09 46 06.6 19.5   704 – Lincoln Laboratory ETS, New Mexico MPS 329077
2000 12 30.44805 08 24 27.65 +02 17 42.6 20.7   608 – Haleakala-AMOS MPS 252719
2000 12 30.45823 08 24 27.25 +02 17 41.9 20.4   608 – Haleakala-AMOS MPS 252719
2000 12 30.46876 08 24 26.83 +02 17 42.4 20.0   608 – Haleakala-AMOS MPS 252719
2002 04 08.45275 14 09 38.39 -09 26 41.8 19.9   644 – Palomar Mountain/NEAT MPS 55181
2002 04 08.46365 14 09 37.94 -09 26 37.0 19.9   644 – Palomar Mountain/NEAT MPS 55181
2002 04 08.47576 14 09 37.44 -09 26 31.1 19.7   644 – Palomar Mountain/NEAT MPS 55181
2002 04 09.26975 14 09 05.88 -09 20 29.6 19.8   644 – Palomar Mountain/NEAT MPS 55181
2002 04 09.34321 14 09 02.83 -09 19 55.9 19.6   644 – Palomar Mountain/NEAT MPS 55181
2002 04 09.41814 14 08 59.70 -09 19 21.6 19.8   644 – Palomar Mountain/NEAT MPS 55181
2002 04 14.42019 14 05 30.72 -08 40 47.0 20.6   644 – Palomar Mountain/NEAT MPS 58976
2002 04 14.43208 14 05 30.21 -08 40 41.4 19.8   644 – Palomar Mountain/NEAT MPS 58976
2002 04 14.44260 14 05 29.74 -08 40 36.1 20.0   644 – Palomar Mountain/NEAT MPS 58976
2004 10 07.36460 02 09 17.61 +09 50 56.5 19.9 V 691 – Steward Observatory, Kitt Peak-Spacewatch MPS 252719
2004 10 07.39214 02 09 16.51 +09 50 44.0 19.8 V 691 – Steward Observatory, Kitt Peak-Spacewatch MPS 252719
2004 10 07.41889 02 09 15.44 +09 50 31.8 19.7 V 691 – Steward Observatory, Kitt Peak-Spacewatch MPS 252719
2004 10 08.36442 02 08 38.77 +09 43 19.2 19.2 R 699 – Lowell Observatory-LONEOS MPS 252719
2004 10 08.37738 02 08 38.44 +09 43 10.9   699 – Lowell Observatory-LONEOS MPS 252719
2004 10 08.39034 02 08 37.86 +09 43 07.4   699 – Lowell Observatory-LONEOS MPS 252719
2004 10 08.40333 02 08 37.30 +09 42 59.2   699 – Lowell Observatory-LONEOS MPS 252719
2007 03 11.40781 14 16 05.52 -12 13 02.9 20.5 V G96 – Mt. Lemmon Survey MPS 252759
2007 03 11.41506 14 16 05.41 -12 13 01.2 20.4 V G96 – Mt. Lemmon Survey MPS 252759
2007 03 11.42237 14 16 05.37 -12 12 58.7 20.5 V G96 – Mt. Lemmon Survey MPS 252759
2007 03 11.42972 14 16 05.26 -12 12 57.1 20.3 V G96 – Mt. Lemmon Survey MPS 252759
2007 03 26.40026 14 11 05.28 -10 48 02.4 19.9 V G96 – Mt. Lemmon Survey MPS 252759
2007 03 26.40689 14 11 05.06 -10 47 59.8 19.9 V G96 – Mt. Lemmon Survey MPS 252759
2007 03 26.41351 14 11 04.88 -10 47 57.3 19.9 V G96 – Mt. Lemmon Survey MPS 252759
2007 03 26.42007 14 11 04.66 -10 47 54.8 20.0 V G96 – Mt. Lemmon Survey MPS 252759
2007 04 18.20495 13 56 30.62 -07 57 57.6 19.8 V 691 – Steward Observatory, Kitt Peak-Spacewatch MPS 252759
2007 04 18.22262 13 56 29.83 -07 57 49.5 19.9 V 691 – Steward Observatory, Kitt Peak-Spacewatch MPS 252759
2007 04 18.24028 13 56 29.02 -07 57 41.4 19.9 V 691 – Steward Observatory, Kitt Peak-Spacewatch MPS 252759
2007 04 18.28894 13 56 26.77 -07 57 18.6 19.2 V 703 – Catalina Sky Survey MPS 252759
2007 04 18.29968 13 56 26.34 -07 57 13.0 19.1 V 703 – Catalina Sky Survey MPS 252759
2007 04 18.31046 13 56 25.83 -07 57 08.4 19.4 V 703 – Catalina Sky Survey MPS 252759
2007 04 18.32125 13 56 25.29 -07 57 03.2 19.5 V 703 – Catalina Sky Survey MPS 252759
2007 05 10.14376 13 41 24.05 -05 19 51.8 20.5 V 691 – Steward Observatory, Kitt Peak-Spacewatch MPS 252759
2007 05 10.16237 13 41 23.37 -05 19 44.8 20.3 V 691 – Steward Observatory, Kitt Peak-Spacewatch MPS 252759
2007 05 10.18097 13 41 22.70 -05 19 38.0 20.1 V 691 – Steward Observatory, Kitt Peak-Spacewatch MPS 252759
2009 09 14.38636 02 12 30.81 +12 02 26.8 20.5   704 – Lincoln Laboratory ETS, New Mexico MPS 294949
2009 09 14.39803 02 12 30.54 +12 02 23.2 20.2   704 – Lincoln Laboratory ETS, New Mexico MPS 294949
2009 09 14.40989 02 12 30.40 +12 02 18.9 20.3   704 – Lincoln Laboratory ETS, New Mexico MPS 294949
2009 09 15.39544 02 12 16.26 +11 57 13.9 20.1 V 691 – Steward Observatory, Kitt Peak-Spacewatch MPS 294949
2009 09 15.41312 02 12 15.96 +11 57 08.2 20.3 V 691 – Steward Observatory, Kitt Peak-Spacewatch MPS 294949
2009 09 15.43081 02 12 15.69 +11 57 02.8 20.3 V 691 – Steward Observatory, Kitt Peak-Spacewatch MPS 294949
2009 09 27.35410 02 07 44.49 +10 45 04.8 19.8 V 691 – Steward Observatory, Kitt Peak-Spacewatch MPS 296858
2009 09 27.37175 02 07 43.92 +10 44 57.4 20.0 V 691 – Steward Observatory, Kitt Peak-Spacewatch MPS 296858
2009 09 27.38941 02 07 43.36 +10 44 50.1 20.1 V 691 – Steward Observatory, Kitt Peak-Spacewatch MPS 296858
2009 10 13.93777 01 57 24.73 +08 40 30.4 18.7 V J75 – OAM Observatory, La Sagra MPS 298259
2009 10 13.95138 01 57 24.10 +08 40 24.5 19.3 V J75 – OAM Observatory, La Sagra MPS 298259
2009 10 13.96516 01 57 23.45 +08 40 17.8 19.7 V J75 – OAM Observatory, La Sagra MPS 298259
2009 10 14.26224 01 57 10.51 +08 37 55.0 19.9 V 703 – Catalina Sky Survey MPS 298259
2009 10 14.26882 01 57 10.36 +08 37 52.5 19.2 V 703 – Catalina Sky Survey MPS 298259
2009 10 14.27561 01 57 09.86 +08 37 49.6 19.1 V 703 – Catalina Sky Survey MPS 298259
2009 10 14.28242 01 57 09.72 +08 37 47.6 19.2 V 703 – Catalina Sky Survey MPS 298259
2009 10 17.38285 01 54 53.67 +08 12 49.6 19.6 V 703 – Catalina Sky Survey MPS 299308
2009 10 17.39064 01 54 53.35 +08 12 44.7 19.3 V 703 – Catalina Sky Survey MPS 299308
2009 10 17.39844 01 54 52.95 +08 12 41.3 19.2 V 703 – Catalina Sky Survey MPS 299308
2009 10 17.40630 01 54 52.63 +08 12 36.7 19.1 V 703 – Catalina Sky Survey MPS 299308
2009 10 21.25471 01 52 01.12 +07 41 38.5 19.2 V 703 – Catalina Sky Survey MPS 299308
2009 10 21.26140 01 52 00.76 +07 41 36.0 19.3 V 703 – Catalina Sky Survey MPS 299308
2009 10 21.26807 01 52 00.37 +07 41 31.3 19.0 V 703 – Catalina Sky Survey MPS 299308
2009 10 21.27469 01 52 00.22 +07 41 28.3 18.8 V 703 – Catalina Sky Survey MPS 299308
2009 10 24.34654 01 49 42.24 +07 16 58.8 19.5 V G96 – Mt. Lemmon Survey MPS 300582
2009 10 24.35414 01 49 41.91 +07 16 55.2 18.9 V G96 – Mt. Lemmon Survey MPS 300582
2009 10 24.36159 01 49 41.55 +07 16 51.6 19.4 V G96 – Mt. Lemmon Survey MPS 300582
2009 10 24.36914 01 49 41.19 +07 16 47.8 18.7 V G96 – Mt. Lemmon Survey MPS 300582
2009 10 26.13494 01 48 22.80 +07 02 53.6 19.9 V 691 – Steward Observatory, Kitt Peak-Spacewatch MPS 300582
2009 10 26.15213 01 48 22.03 +07 02 45.8 19.8 V 691 – Steward Observatory, Kitt Peak-Spacewatch MPS 300582
2009 10 26.16934 01 48 21.23 +07 02 37.5 19.7 V 691 – Steward Observatory, Kitt Peak-Spacewatch MPS 300582
2009 10 26.83804 01 47 51.58 +06 57 23.4 18.8 V J75 – OAM Observatory, La Sagra MPS 300582
2009 10 26.85068 01 47 51.06 +06 57 17.9 18.9 V J75 – OAM Observatory, La Sagra MPS 300582
2009 10 26.86331 01 47 50.45 +06 57 11.5 18.8 V J75 – OAM Observatory, La Sagra MPS 300582
2009 11 08.09429 01 39 23.98 +05 28 29.3 20.0 V 691 – Steward Observatory, Kitt Peak-Spacewatch MPS 302116
2009 11 08.11107 01 39 23.32 +05 28 22.1 19.9 V 691 – Steward Observatory, Kitt Peak-Spacewatch MPS 302116
2009 11 08.12443 01 39 22.80 +05 28 16.8 20.0 V 691 – Steward Observatory, Kitt Peak-Spacewatch MPS 302116
2009 11 09.07727 01 38 47.53 +05 22 04.2 20.1 V 691 – Steward Observatory, Kitt Peak-Spacewatch MPS 302116
2009 11 09.10173 01 38 46.61 +05 21 55.2 20.0 V 691 – Steward Observatory, Kitt Peak-Spacewatch MPS 302116
2009 11 09.12278 01 38 45.83 +05 21 46.8 20.1 V 691 – Steward Observatory, Kitt Peak-Spacewatch MPS 302116
2009 11 11.10431 01 37 35.00 +05 09 16.4   691 – Steward Observatory, Kitt Peak-Spacewatch MPS 302116
2009 11 11.11769 01 37 34.51 +05 09 11.6   691 – Steward Observatory, Kitt Peak-Spacewatch MPS 302116
2009 11 11.13109 01 37 34.03 +05 09 06.6   691 – Steward Observatory, Kitt Peak-Spacewatch MPS 302116
2009 11 19.10594 01 33 28.74 +04 24 50.8 19.7 V 691 – Steward Observatory, Kitt Peak-Spacewatch MPS 303216
2009 11 19.11678 01 33 28.50 +04 24 48.6 19.8 V 691 – Steward Observatory, Kitt Peak-Spacewatch MPS 303216
2009 11 19.12763 01 33 28.17 +04 24 44.6 20.1 V 691 – Steward Observatory, Kitt Peak-Spacewatch MPS 303216
